Location: Gad�tanya
(48.0500°N, 20.8500°E)
Time: 23:13:21
(UTC+00:00)

Cosmos 2154 Rocket - Pass Details

Date: 05 July 2020
Orbit: 967 x 996 km, 82.9° (Epoch: 05 August)

Event Time Altitude Azimuth Distance (km) Brightness Sun altitude
Exits shadow 21:23:05 23° 187° (S) 1,929 5.0 -17.1°
Maximum altitude 21:27:09 90° 252° (WSW) 975 4.0 -17.3°
Drops below altitude 10° 21:33:25 10° 9° (N) 2,726 7.3 -17.7°
Sets 21:35:57 0° 10° (N) 3,680 8.2 -17.8°
